Precipitable_Water
0.38 0.28 0.22 0.23 0.26 0.25 0.24 0.19 0.19 0.23 0.29 0.27 0.26 0.26 0.27 0.30 0.30 0.30 0.30 0.30 0.28 0.29 0.34 0.38 0.43 0.49 0.52 0.54 0.49 0.47 0.46 0.47 0.46 0.39 0.36 0.39 0.38 0.43 0.45 0.45 0.44 0.44 0.45 0.45
0.30 0.25 0.29 0.29 0.27 0.24 0.23 0.20 0.19 0.23 0.27 0.27 0.25 0.24 0.25 0.26 0.28 0.27 0.28 0.29 0.27 0.29 0.32 0.36 0.41 0.46 0.49 0.48 0.47 0.47 0.47 0.47 0.44 0.41 0.41 0.41 0.42 0.44 0.43 0.43 0.43 0.44 0.44 0.44
0.25 0.29 0.33 0.27 0.24 0.21 0.22 0.20 0.19 0.19 0.25 0.26 0.24 0.21 0.22 0.25 0.26 0.28 0.28 0.27 0.28 0.28 0.29 0.35 0.39 0.43 0.46 0.45 0.46 0.47 0.48 0.46 0.44 0.44 0.43 0.42 0.43 0.41 0.38 0.39 0.40 0.42 0.44 0.44
0.30 0.34 0.29 0.26 0.23 0.23 0.17 0.25 0.22 0.21 0.19 0.16 0.23 0.15 0.20 0.22 0.23 0.26 0.26 0.25 0.25 0.27 0.32 0.36 0.39 0.42 0.44 0.45 0.49 0.49 0.48 0.45 0.43 0.41 0.38 0.36 0.33 0.30 0.36 0.39 0.41 0.42 0.43 0.42
0.27 0.28 0.25 0.22 0.23 0.26 0.20 0.26 0.23 0.20 0.18 0.18 0.19 0.17 0.17 0.21 0.18 0.20 0.25 0.26 0.26 0.30 0.34 0.36 0.40 0.42 0.44 0.47 0.47 0.48 0.47 0.44 0.42 0.40 0.39 0.35 0.33 0.35 0.39 0.40 0.39 0.40 0.41 0.42
0.30 0.36 0.31 0.27 0.28 0.28 0.29 0.24 0.22 0.20 0.17 0.12 0.16 0.15 0.14 0.15 0.18 0.21 0.25 0.27 0.28 0.32 0.36 0.40 0.42 0.45 0.45 0.47 0.47 0.47 0.45 0.40 0.39 0.39 0.38 0.35 0.33 0.35 0.36 0.37 0.37 0.39 0.42 0.47
0.25 0.26 0.31 0.31 0.22 0.27 0.23 0.18 0.12 0.11 0.11 0.10 0.19 0.15 0.13 0.18 0.23 0.25 0.24 0.27 0.31 0.34 0.36 0.38 0.41 0.42 0.44 0.45 0.46 0.44 0.40 0.35 0.37 0.37 0.37 0.37 0.37 0.38 0.38 0.39 0.41 0.43 0.46 0.50
0.16 0.14 0.24 0.31 0.23 0.18 0.20 0.17 0.12 0.09 0.09 0.11 0.18 0.12 0.14 0.22 0.26 0.28 0.30 0.31 0.33 0.35 0.38 0.39 0.41 0.42 0.42 0.44 0.43 0.40 0.36 0.35 0.36 0.38 0.39 0.41 0.43 0.44 0.47 0.49 0.51 0.52 0.52 0.53
0.14 0.15 0.30 0.30 0.30 0.24 0.18 0.16 0.21 0.14 0.15 0.12 0.13 0.15 0.17 0.20 0.23 0.25 0.27 0.30 0.32 0.35 0.37 0.39 0.41 0.43 0.43 0.42 0.41 0.40 0.38 0.38 0.41 0.43 0.47 0.50 0.52 0.53 0.54 0.55 0.56 0.55 0.56 0.55
0.21 0.14 0.25 0.27 0.31 0.27 0.20 0.21 0.13 0.14 0.09 0.08 0.10 0.11 0.11 0.15 0.18 0.23 0.24 0.28 0.33 0.36 0.37 0.38 0.39 0.39 0.40 0.40 0.40 0.42 0.44 0.44 0.49 0.54 0.56 0.56 0.56 0.57 0.57 0.57 0.55 0.56 0.57 0.56
0.24 0.19 0.19 0.25 0.20 0.18 0.18 0.16 0.16 0.15 0.13 0.09 0.08 0.09 0.17 0.18 0.21 0.21 0.25 0.29 0.33 0.34 0.34 0.35 0.35 0.36 0.38 0.39 0.42 0.47 0.52 0.56 0.58 0.58 0.59 0.58 0.58 0.59 0.60 0.59 0.59 0.58 0.58 0.55
0.21 0.17 0.14 0.16 0.24 0.26 0.22 0.18 0.17 0.12 0.11 0.13 0.11 0.10 0.18 0.22 0.25 0.26 0.27 0.28 0.31 0.33 0.33 0.33 0.33 0.35 0.39 0.44 0.50 0.54 0.57 0.59 0.61 0.63 0.62 0.61 0.62 0.63 0.62 0.61 0.61 0.61 0.58 0.56
0.20 0.15 0.11 0.12 0.17 0.22 0.19 0.20 0.18 0.17 0.15 0.11 0.10 0.10 0.21 0.23 0.23 0.24 0.24 0.26 0.27 0.29 0.31 0.35 0.39 0.41 0.43 0.46 0.49 0.55 0.60 0.63 0.65 0.65 0.64 0.63 0.63 0.63 0.63 0.62 0.61 0.59 0.57 0.54
0.23 0.16 0.13 0.10 0.12 0.16 0.15 0.17 0.19 0.16 0.13 0.13 0.13 0.13 0.15 0.17 0.18 0.20 0.22 0.28 0.33 0.37 0.38 0.40 0.41 0.43 0.46 0.50 0.53 0.56 0.58 0.63 0.66 0.66 0.65 0.64 0.63 0.62 0.61 0.59 0.57 0.55 0.54 0.54
0.20 0.13 0.14 0.15 0.16 0.16 0.15 0.14 0.17 0.16 0.15 0.12 0.10 0.09 0.10 0.15 0.19 0.25 0.32 0.35 0.35 0.36 0.39 0.41 0.43 0.47 0.51 0.54 0.56 0.58 0.60 0.61 0.63 0.63 0.62 0.62 0.62 0.62 0.61 0.59 0.59 0.59 0.59 0.60
0.19 0.12 0.14 0.12 0.17 0.15 0.11 0.12 0.12 0.12 0.13 0.13 0.16 0.17 0.22 0.25 0.28 0.33 0.35 0.38 0.38 0.40 0.42 0.45 0.47 0.49 0.49 0.49 0.48 0.49 0.51 0.54 0.57 0.57 0.57 0.57 0.57 0.56 0.57 0.58 0.60 0.59 0.59 0.57
0.16 0.14 0.15 0.15 0.23 0.23 0.17 0.21 0.23 0.22 0.22 0.21 0.17 0.21 0.27 0.29 0.33 0.36 0.39 0.41 0.42 0.44 0.48 0.50 0.51 0.51 0.51 0.51 0.50 0.46 0.45 0.43 0.40 0.39 0.38 0.39 0.40 0.41 0.42 0.41 0.40 0.38 0.35 0.35
0.28 0.26 0.26 0.20 0.22 0.13 0.21 0.30 0.29 0.26 0.27 0.29 0.29 0.31 0.34 0.37 0.40 0.43 0.45 0.45 0.47 0.51 0.53 0.55 0.54 0.54 0.53 0.48 0.42 0.39 0.36 0.34 0.32 0.31 0.30 0.28 0.27 0.25 0.24 0.22 0.20 0.20 0.20 0.22
0.32 0.28 0.23 0.19 0.19 0.22 0.24 0.29 0.29 0.29 0.29 0.37 0.35 0.38 0.41 0.43 0.44 0.43 0.50 0.52 0.53 0.55 0.56 0.55 0.55 0.53 0.45 0.38 0.35 0.31 0.28 0.26 0.24 0.23 0.22 0.21 0.20 0.20 0.19 0.18 0.17 0.17 0.17 0.16
0.37 0.35 0.28 0.26 0.21 0.18 0.27 0.35 0.38 0.38 0.26 0.40 0.40 0.40 0.41 0.44 0.35 0.40 0.51 0.54 0.55 0.57 0.56 0.52 0.50 0.43 0.35 0.30 0.27 0.24 0.22 0.21 0.20 0.21 0.21 0.21 0.20 0.18 0.16 0.15 0.15 0.15 0.15 0.15
0.32 0.32 0.28 0.28 0.26 0.29 0.38 0.41 0.43 0.27 0.30 0.44 0.45 0.45 0.45 0.42 0.46 0.51 0.54 0.55 0.56 0.54 0.51 0.48 0.41 0.31 0.26 0.25 0.25 0.22 0.21 0.19 0.19 0.19 0.19 0.18 0.18 0.19 0.18 0.16 0.15 0.14 0.15 0.15
0.32 0.30 0.30 0.31 0.28 0.24 0.43 0.41 0.34 0.41 0.47 0.47 0.49 0.50 0.48 0.50 0.50 0.51 0.52 0.49 0.50 0.50 0.43 0.37 0.28 0.24 0.23 0.23 0.22 0.20 0.18 0.18 0.18 0.17 0.17 0.17 0.19 0.19 0.18 0.16 0.14 0.14 0.15 0.15
0.33 0.37 0.34 0.35 0.33 0.44 0.49 0.47 0.52 0.52 0.49 0.50 0.49 0.52 0.52 0.49 0.47 0.47 0.48 0.50 0.44 0.35 0.29 0.26 0.24 0.23 0.22 0.21 0.20 0.18 0.17 0.18 0.17 0.17 0.16 0.16 0.19 0.18 0.17 0.14 0.13 0.14 0.14 0.14
0.41 0.45 0.38 0.37 0.41 0.45 0.48 0.51 0.51 0.52 0.49 0.50 0.51 0.50 0.48 0.45 0.49 0.47 0.42 0.36 0.30 0.26 0.23 0.22 0.20 0.18 0.18 0.19 0.18 0.16 0.16 0.16 0.15 0.14 0.15 0.16 0.15 0.14 0.15 0.16 0.17 0.17 0.17 0.17
0.40 0.43 0.39 0.39 0.42 0.44 0.44 0.47 0.47 0.48 0.50 0.49 0.49 0.49 0.48 0.46 0.42 0.38 0.33 0.28 0.24 0.21 0.20 0.19 0.18 0.17 0.17 0.17 0.15 0.15 0.15 0.15 0.14 0.14 0.14 0.15 0.16 0.16 0.17 0.19 0.20 0.21 0.22 0.24
0.43 0.39 0.36 0.34 0.42 0.41 0.40 0.45 0.48 0.46 0.45 0.47 0.47 0.45 0.43 0.40 0.35 0.29 0.25 0.23 0.20 0.18 0.18 0.17 0.16 0.16 0.15 0.15 0.14 0.14 0.16 0.17 0.17 0.18 0.18 0.19 0.20 0.20 0.21 0.22 0.22 0.26 0.27 0.29
Wind_Speed
26 27 26 27 27 26 25 22 22 22 20 20 22 22 22 20 18 18 18 17 17 16 15 15 15 14 15 15 15 16 16 16 17 17 17 18 18 19 19 19 20 20 20 20
22 25 24 24 23 23 23 22 20 19 20 20 18 22 23 20 20 19 19 18 18 17 16 16 15 15 16 16 16 17 17 17 18 18 18 18 19 19 19 20 20 20 20 20
22 24 22 23 22 20 20 21 21 18 17 18 18 20 20 18 19 19 19 20 19 19 18 17 16 16 16 17 17 17 18 18 18 18 19 19 19 19 20 20 20 20 20 20
19 20 20 20 19 19 19 19 19 19 16 17 15 17 17 16 19 18 19 19 20 19 18 18 17 17 17 17 18 18 19 19 19 19 19 20 20 20 20 20 19 19 20 21
17 18 18 17 18 18 18 16 17 17 16 15 15 14 17 15 17 17 18 18 18 18 18 18 18 18 18 18 19 19 19 20 20 20 20 20 20 20 20 20 20 21 22 22
15 16 17 16 16 16 17 14 12 14 14 14 16 14 16 15 15 15 16 17 17 17 17 17 18 18 19 19 19 20 20 20 20 21 21 21 20 20 21 21 22 23 24 24
11 13 15 15 15 15 14 13 11 12 13 16 14 13 18 14 14 14 15 16 16 16 16 17 18 19 19 20 20 21 21 22 22 22 21 21 22 22 23 24 25 25 25 25
13 11 14 14 14 16 15 15 14 15 13 14 13 16 15 13 14 14 15 15 15 16 17 18 19 19 20 21 21 22 23 23 22 22 23 24 25 26 27 27 27 27 27 27
10 9 12 12 13 14 15 14 14 11 11 11 13 15 15 15 15 13 13 14 15 16 17 18 19 20 21 22 23 23 23 24 25 26 26 27 28 28 28 28 29 29 30 30
9 8 11 12 13 12 13 15 11 12 12 14 14 15 15 13 14 13 14 15 15 16 17 19 20 21 23 24 24 24 25 26 27 28 28 29 30 30 30 31 32 32 33 33
8 8 10 11 13 14 13 13 11 12 12 13 13 15 14 13 14 14 14 15 16 17 18 19 21 22 23 24 25 27 27 28 29 30 31 31 32 32 33 34 35 36 36 37
7 8 8 10 11 12 13 14 14 13 15 13 13 17 14 15 15 15 14 15 17 18 19 19 20 21 23 25 27 29 30 30 31 32 32 32 33 34 35 36 37 38 39 39
8 6 6 6 8 11 13 14 13 13 13 16 13 15 12 14 15 16 16 17 18 19 19 20 21 22 24 27 28 30 32 32 33 33 34 34 35 36 37 39 39 40 41 42
6 7 8 10 8 8 11 13 15 15 13 15 19 19 18 19 19 19 19 19 19 19 20 21 23 25 26 27 28 29 29 31 33 34 34 36 37 38 39 40 41 42 43 44
5 7 7 10 11 11 13 13 15 18 17 17 18 20 19 20 21 21 21 21 21 21 22 24 25 27 28 28 28 28 28 29 31 33 35 37 39 40 41 43 44 45 45 46
7 8 7 10 10 13 15 17 18 19 19 22 20 24 22 22 21 21 22 22 23 24 25 26 27 28 28 29 30 31 32 33 34 35 36 38 40 42 43 45 46 47 49 49
8 8 9 11 11 14 15 16 18 18 19 19 22 23 21 22 22 23 23 24 25 26 27 28 29 29 31 32 34 35 36 36 37 38 40 41 43 45 47 48 49 50 51 52
10 10 11 12 12 13 14 13 15 18 18 20 20 21 22 22 22 22 24 25 26 27 28 30 30 32 34 36 37 38 38 38 39 40 42 43 45 47 48 50 51 52 53 54
15 14 14 15 16 19 17 15 16 17 19 19 22 22 22 21 22 24 25 26 28 29 31 32 34 36 37 38 38 38 40 41 42 44 45 47 48 50 52 53 54 55 55 55
15 15 16 15 16 18 17 16 17 19 21 20 20 20 20 21 23 27 27 28 29 31 33 34 36 38 38 39 40 42 43 44 46 48 49 50 51 53 54 56 56 56 55 56
16 18 20 20 21 23 22 22 21 20 22 21 22 23 24 26 28 29 28 30 31 33 35 37 37 38 40 42 44 45 47 48 51 52 53 53 54 56 57 58 57 56 56 55
19 18 20 19 21 25 21 21 21 22 24 26 26 27 29 29 30 30 30 31 33 35 36 37 39 40 42 44 46 48 50 53 54 56 57 57 57 58 58 58 57 56 54 53
22 22 21 22 22 23 23 23 25 27 28 29 29 30 30 30 31 31 32 35 35 36 37 38 40 42 44 46 49 51 54 55 57 58 59 59 60 60 59 57 55 53 52 50
24 23 24 23 25 26 26 27 28 29 30 30 30 30 30 30 32 33 34 34 35 36 38 40 42 45 48 50 52 54 55 56 57 58 59 60 59 59 56 55 53 51 49 47
24 23 24 26 26 27 29 29 30 30 30 29 29 30 31 32 32 33 33 34 36 37 39 42 46 49 52 54 55 56 56 57 59 59 60 59 58 56 54 51 49 47 45 43
25 26 26 27 28 28 29 28 29 30 30 29 30 30 30 31 31 32 34 35 37 40 43 46 49 52 54 56 57 58 58 58 59 59 58 56 54 51 48 46 44 41 41 40
Wind_Direction
189 189 195 198 199 200 201 205 210 217 221 222 231 237 243 245 244 244 246 251 255 255 262 264 265 265 268 273 277 282 286 290 294 296 296 299 301 305 308 312 315 317 318 321
184 188 193 192 195 197 201 204 211 218 221 225 235 242 244 242 244 245 247 250 253 257 260 262 263 267 269 272 277 282 284 289 292 293 295 296 299 302 305 308 311 314 316 318
182 187 191 192 194 195 204 206 211 216 221 227 241 246 243 244 247 252 254 254 255 255 255 258 261 265 270 273 277 280 283 288 290 291 292 295 298 300 302 304 307 310 313 315
177 188 188 189 193 200 202 210 212 213 219 227 234 242 247 249 252 253 257 256 254 252 254 257 260 266 270 273 277 280 283 286 288 289 291 293 296 297 299 301 304 306 310 312
185 185 184 188 196 202 203 206 208 214 218 228 237 241 246 253 255 255 254 257 253 251 252 256 261 266 269 274 276 279 282 285 287 289 291 292 294 295 297 299 301 303 305 308
177 184 188 191 193 198 194 199 206 213 221 234 239 235 249 250 254 260 257 255 252 251 254 259 263 268 272 274 276 279 282 284 286 288 289 290 291 292 294 295 297 299 302 305
173 185 190 191 190 198 198 198 214 222 229 230 237 244 245 250 254 260 263 252 251 252 254 260 266 269 272 273 276 279 282 284 285 286 287 288 290 291 292 293 295 297 299 301
170 188 189 196 197 200 203 203 206 216 223 238 241 244 248 252 257 260 264 252 252 254 260 264 268 270 273 276 278 281 282 284 284 284 286 288 289 290 291 292 293 294 296 298
164 180 191 192 200 201 206 212 213 213 238 242 241 254 260 257 258 261 262 253 255 259 263 270 273 274 275 278 280 281 282 283 284 285 286 287 288 289 290 290 291 292 293 294
175 166 190 198 199 204 211 206 217 233 231 243 252 255 253 258 256 258 260 257 260 265 272 276 278 278 279 281 282 283 283 284 286 286 286 287 287 288 288 288 289 290 291 292
172 175 198 199 205 206 211 220 225 225 232 235 252 255 251 258 260 259 261 262 266 271 277 281 283 284 282 283 283 284 284 285 285 286 286 287 287 287 288 288 289 289 289 290
182 179 188 204 215 218 221 225 224 229 239 247 251 261 262 267 268 261 264 268 271 275 279 282 285 287 289 288 287 286 286 286 287 287 287 288 289 289 289 289 289 289 288 289
189 194 195 220 223 225 226 227 229 236 245 244 245 261 268 270 271 269 266 270 274 277 280 283 287 291 293 295 294 290 288 287 287 288 288 289 289 290 290 290 290 289 288 288
200 207 208 211 218 214 227 233 235 237 247 253 256 270 270 269 268 269 270 273 275 278 281 285 289 292 295 298 299 297 294 291 289 289 289 290 290 291 291 291 290 290 289 289
218 230 231 243 243 243 245 244 239 243 251 254 270 263 274 269 269 270 272 274 276 279 283 287 290 293 295 297 299 299 299 297 294 292 291 291 291 292 292 292 291 290 290 289
248 245 246 253 255 252 258 256 254 257 262 268 273 276 273 280 275 272 271 273 277 281 284 287 290 292 294 296 297 298 298 297 296 295 295 294 294 294 294 293 293 292 291 289
246 245 255 258 266 270 268 258 253 260 262 263 267 276 275 277 276 273 273 275 277 280 283 286 289 291 293 295 296 297 297 297 297 296 296 295 295 294 294 294 293 292 292 291
245 249 257 261 273 266 265 266 267 262 269 266 275 279 280 282 281 279 278 277 279 281 284 287 289 291 293 294 296 296 296 297 297 297 298 298 297 297 296 296 295 294 293 291
258 256 262 264 264 276 274 273 271 270 277 276 275 279 282 281 283 284 280 280 281 284 286 287 289 291 292 294 295 296 297 297 298 298 298 299 299 298 298 297 296 295 294 293
259 261 259 265 267 268 275 276 277 278 281 283 280 278 278 282 286 286 282 283 285 287 288 289 291 292 293 294 295 296 297 297 298 298 298 299 299 299 299 298 297 296 295 294
261 265 260 263 270 277 274 277 278 277 279 282 281 281 281 285 287 288 285 286 287 289 290 291 292 293 293 295 295 296 297 297 298 298 298 299 299 299 299 299 298 297 296 295
259 259 264 265 269 275 278 277 275 276 281 284 286 285 284 287 289 289 288 289 290 290 291 292 294 295 296 297 297 297 298 298 299 298 298 298 299 299 299 299 298 297 296 295
266 262 266 261 268 272 275 276 278 281 284 285 285 286 286 287 289 288 289 290 290 291 293 294 295 296 298 299 299 299 300 300 300 299 298 298 298 299 300 299 298 297 296 295
268 267 268 271 272 272 274 279 282 282 284 285 286 286 287 288 288 288 290 290 292 293 294 296 297 298 299 300 301 301 301 301 300 299 298 299 299 299 299 299 298 297 296 295
270 269 269 272 274 277 278 279 282 282 284 284 285 286 287 288 289 290 291 292 293 295 297 298 299 300 300 301 301 301 301 300 300 299 299 299 299 299 299 298 297 296 296 295
268 269 270 272 274 276 279 281 281 282 283 284 286 287 288 289 289 291 293 294 296 298 299 300 301 302 302 302 302 302 301 301 300 300 300 300 300 299 299 298 298 297 297 296